Location: Albany
(35.0170°S, 117.8920°E)
Time: 16:51:00
(UTC+08:00)

Explorer 11/Cluster Stage 4 - Pass Details

Date: 01 February 2021
Orbit: 467 x 1257 km, 28.8° (Epoch: 02 March)

Event Time Altitude Azimuth Distance (km) Brightness Sun altitude
Rises 07:13:36 0° 281° (W) 4,128 9.7 20.1°
Reaches altitude 10° 07:16:43 10° 285° (WNW) 3,094 9.1 20.7°
Maximum altitude 07:24:08 52° 358° (N) 1,279 7.9 22.2°
Drops below altitude 10° 07:30:18 10° 73° (ENE) 2,581 10.6 23.5°
Sets 07:32:42 0° 78° (ENE) 3,399 11.1 24.0°
